Regional Weather Roundup
Issued by NWS Sioux Falls, SD

Home | Current Version | Previous Version | Text Only | Print | Product List | Glossary On
Versions: 1 2 3 4 5 6 7 8 9 10 11 12 13 14 15 16 17 18 19 20 21 22 23 24 25 26 27 28 29 30 31 32 33 34 35 36 37 38 39 40 41 42 43 44 45 46 47 48 49 50
000
ASUS43 KFSD 250410
RWRFSD

WEATHER ROUNDUP FOR SE SOUTH DAKOTA/SW MINNESOTA/NW IOWA
NATIONAL WEATHER SERVICE SIOUX FALLS SD
1000 PM CST SAT JAN 24 2015

NOTE: "FAIR" INDICATES FEW OR NO CLOUDS BELOW 12,000 FEET WITH NO
SIGNIFICANT WEATHER AND OR OBSTRUCTIONS TO VISIBILITY.


SDZ038>040-050-052>070-250500-
SOUTHEAST SOUTH DAKOTA

CITY           SKY/WX    TMP DP  RH WIND       PRES   REMARKS
CHAMBERLAIN    CLOUDY    38  34  86 NW23G32   29.74R
HURON          MIX PCPN  33  31  92 N21       29.69R FOG     WCI  21
MADISON        LGT SNOW  32  32 100 N15       29.59R WCI  22
MITCHELL       CLOUDY    38  35  89 N26G40    29.65R
SIOUX FALLS    LGT RAIN  37  35  92 N8        29.58R
WINNER         CLOUDY    41  36  82 NW26G35   29.77R
YANKTON        CLOUDY    39  36  87 NW23G29   29.62R
$$

MNZ071-072-080-081-089-090-097-098-250500-
SOUTHWEST MINNESOTA

CITY           SKY/WX    TMP DP  RH WIND       PRES   REMARKS
FAIRMONT       CLOUDY    34  30  86 CALM      29.58R
JACKSON        LGT RAIN  34  32  93 N9        29.58R WCI  26
LUVERNE        DRIZZLE   36  34  93 N5        29.57S
MARSHALL       CLOUDY    32  28  86 N10       29.63R WCI  24
MONTEVIDEO     FLURRIES  34  34 100 NE9       29.65R WCI  26
PIPESTONE      DRIZZLE   34  34 100 NE12      29.57R WCI  25
REDWOOD FALLS  CLOUDY    35  32  88 N6        29.61R
TRACY          LGT SNOW  33  33  98 N8        29.60R WCI  26
WINDOM         LGT SNOW  34  34 100 N6        29.58R WCI  29
WORTHINGTON    CLOUDY    34  30  86 N10       29.57S WCI  26
$$

IAZ001>003-012>014-020>022-031-032-NEZ013-014-SDZ071-250500-
NORTHWEST IOWA

CITY           SKY/WX    TMP DP  RH WIND       PRES   REMARKS
CHEROKEE       CLOUDY    35  35  99 NE5       29.55S
DENISON        CLOUDY    43  36  75 SW6       29.53F
ESTHERVILLE    CLOUDY    33  32  96 N6        29.57R FOG     WCI  28
LE MARS        CLOUDY    41  37  87 NW6       29.56S
ORANGE CITY    CLOUDY    39  34  81 CALM      29.55S
SHELDON        CLOUDY    36  36 100 NE7       29.55R
SIOUX CITY     LGT RAIN  46  39  76 NW22G29   29.57R
SPENCER        LGT RAIN  37  34  89 W7        29.56S
STORM LAKE     CLOUDY    39  34  81 CALM      29.55S
$$

ABBREVIATIONS USED IN REMARKS
   TC - TEMPERATURE IN CELSIUS
  WCI - WIND CHILL INDEX
   HX - HEAT INDEX
  VSB - VISIBILITY



USA.gov is the U.S. government's official web portal to all federal, state and local government web resources and services.